Flag for Germany Weather past 2 weeks in Braunschweig, Lower Saxony, Germany

Now
46 °F

Passing clouds.


Feels Like: 39 °F
Forecast: 35 / 42 °F
Wind: 17 mph from West

Location: Braunschweig

Current Time: Mar 2, 2015 at 4:20:10 PM

Latest Report: Mar 2, 2015 at 3:50 PM


Visibility: N/A

Pressure: 29.59 "Hg

Humidity: 57%

Dew point: 32 °F

Location of BraunschweigLocation

Historic Weather in Braunschweig — Graph

°F

Braunschweig temperature yesterday

Maximum temperature yesterday: 48 °F (at 3:50 PM)
Minimum temperature yesterday: 39 °F (at 8:20 AM)
Average temperature yesterday: 44 °F

Past Weeks' High & Low Weather Summary

 TemperatureHumidityPressure
High52 °F (Feb 26, 3:20 PM)100% (Feb 17, 6:50 AM)30.74 "Hg (Feb 17, 6:50 AM)
Low27 °F (Feb 26, 6:50 AM)47% (Feb 26, 3:20 PM)29.33 "Hg (Feb 21, 9:50 AM)
Average40 °F80%29.95 "Hg
* Reported Feb 15 3:20 PM — Mar 2 3:20 PM, Braunschweig, Weather by CustomWeather, © 2015

Note: Actual official high and low records may vary slightly from our data, if they occured in-between our weather recording intervals... More about our weather records

Advertising

Braunschweig weather history for previous 24 hours

 ConditionsComfort  
Time TempWeatherWind HumidityBarometerVisibility
3:20 PM
Mon, Mar 2
48 °FPartly sunny.21 mph50%29.59 "HgN/A
2:50 PM46 °FPartly sunny.17 mph50%29.59 "HgN/A
2:20 PM45 °FPartly sunny.20 mph57%29.59 "HgN/A
1:50 PM46 °FPartly sunny.15 mph53%29.56 "HgN/A
1:20 PM45 °FBroken clouds.17 mph57%29.56 "HgN/A
12:50 PM43 °FPartly sunny.22 mph57%29.56 "HgN/A
12:20 PM45 °FBroken clouds.21 mph57%29.53 "HgN/A
11:50 AM43 °FBroken clouds.20 mph61%29.53 "HgN/A
11:20 AM43 °FBroken clouds.21 mph61%29.53 "HgN/A
10:50 AM43 °FBroken clouds.18 mph66%29.50 "HgN/A
10:20 AM43 °FBroken clouds.18 mph66%29.50 "HgN/A
9:50 AM43 °FScattered clouds.20 mph66%29.50 "HgN/A
9:20 AM41 °FBroken clouds.21 mph70%29.47 "HgN/A
8:50 AM41 °FScattered clouds.18 mph70%29.47 "HgN/A
8:20 AM41 °FBroken clouds.17 mph70%29.47 "HgN/A
7:50 AM39 °FPartly sunny.15 mph75%29.45 "HgN/A
7:20 AM41 °FBroken clouds.20 mph70%29.45 "HgN/A
6:50 AM41 °FPassing clouds.21 mph70%29.42 "HgN/A
6:50 PM
Sun, Mar 1
46 °FOvercast.13 mph76%29.56 "HgN/A
6:20 PM46 °FClear.9 mph76%29.56 "Hg10 mi
5:50 PM46 °FSunny.9 mph76%29.53 "Hg10 mi
5:20 PM46 °FSunny.13 mph71%29.53 "Hg10 mi
4:20 PM48 °FSunny.14 mph71%29.56 "Hg10 mi
Weather by CustomWeather, © 2015

See weather overviewHow to use our weather pages